Hourly Data Report for October 19, 2014

All times are specified in Local Standard Time (LST). Add 1 hour to adjust for Daylight Saving Time where and when it is observed.

HALL BEACH A
NUNAVUT

68°46'33.000" N
81°14'33.000" W
9.10 m
2402354
71293
YUX

Download Data

Hourly Data (October 2014)
Hourly Data Report for October 19, 2014
Temp Definition
°C
Dew Point Temp Definition
°C
Rel Hum Definition
%
Wind Dir Definition
10's deg

Wind Spd Definition
km/h
Visibility Definition
km
Stn Press Definition
kPa
Hmdx Definition


Wind Chill Definition


Weather Definition


TIME
00:00 Legend Double Dagger -11.0 -11.9 93 25 9 16.1 101.51   -16 LegendNANA
01:00 Legend Double Dagger -11.7 -12.6 93 27 5 3.2 101.48   -15 Fog
02:00 Legend Double Dagger -13.2 -14.2 92 25 9 16.1 101.43   -19 LegendNANA
03:00 Legend Double Dagger -12.4 -13.3 93 22 11 16.1 101.40   -18 LegendNANA
04:00 Legend Double Dagger -11.4 -12.3 93 22 13 16.1 101.39   -18 LegendNANA
05:00 Legend Double Dagger -11.2 -12.1 93 22 13 16.1 101.37   -18 LegendNANA
06:00 Legend Double Dagger -11.0 -11.9 93 24 8 16.1 101.34   -16 LegendNANA
07:00 Legend Double Dagger -10.9 -11.8 93 21 11 16.1 101.31   -17 LegendNANA
08:00 Legend Double Dagger -9.3 -10.0 95 21 15 16.1 101.28   -16 LegendNANA
09:00 Legend Double Dagger -8.8 -9.5 95 22 17 16.1 101.24   -16 LegendNANA
10:00 Legend Double Dagger -7.7 -8.2 96 22 15 16.1 101.22   -14 LegendNANA
11:00 Legend Double Dagger -7.1 -7.6 96 24 15 16.1 101.20   -13 Snow
12:00 Legend Double Dagger -6.5 -7.0 96 23 13 4.0 101.18   -12 Snow
13:00 Legend Double Dagger -6.2 -6.6 97 23 9 4.0 101.15   -10 Snow
14:00 Legend Double Dagger -5.4 -5.8 97 20 13 8.1 101.11   -11 Snow
15:00 Legend Double Dagger -4.7 -5.0 98 19 15 8.1 101.09   -10 Snow
16:00 Legend Double Dagger -4.3 -4.6 98 18 11 16.1 101.06   -9 Snow
17:00 Legend Double Dagger -3.3 -3.6 98 19 18 6.4 101.00   -9 Snow
18:00 Legend Double Dagger -3.0 -3.1 99 19 18 9.7 100.95   -9 Snow
19:00 Legend Double Dagger -2.5 -2.6 99 18 22 16.1 100.87   -9 Snow
20:00 Legend Double Dagger -2.2 -2.3 99 18 22 16.1 100.82   -8 Snow
21:00 Legend Double Dagger -2.0 -2.1 99 18 22 16.1 100.75   -8 Snow
22:00 Legend Double Dagger -1.9 -2.0 99 18 18 16.1 100.69   -7 Snow
23:00 Legend Double Dagger -1.7 -2.0 98 18 22 6.4 100.62   -8 Snow

Notes on Data Quality.

Legend

  • E = Estimated
  • M = Missing
  • NA = Not Available
  • ‡ = Partner data that is not subject to review by the National Climate Archives
Date modified: